EW2832 Weather Reports


Display with metric or nautical units.
time (UTC)temp
F
wind
direction
speed
MPH
gust
MPH
rain 1hr
in
rain 24hr
in
rain mn
in
humidity
%
barometer
mb
20260508184954 58 181 14.0 15.0 0.00 0.00 0.00 39 1010.6
20260508184453 58 181 14.0 15.0 0.00 0.00 0.00 38 1010.6
20260508183953 58 178 14.0 15.0 0.00 0.00 0.00 38 1010.7
20260508183454 58 178 14.0 15.0 0.00 0.00 0.00 40 1010.7
20260508182955 58 181 14.0 16.0 0.00 0.00 0.00 41 1010.8
20260508181954 57 181 16.0 17.0 0.00 0.00 0.00 40 1010.8
20260508181453 58 181 16.0 17.0 0.00 0.00 0.00 41 1010.9
20260508180954 57 181 15.0 16.0 0.00 0.00 0.00 40 1010.9
20260508180454 57 181 15.0 16.0 0.00 0.00 0.00 42 1010.8
20260508175954 57 181 15.0 17.0 0.00 0.00 0.00 41 1011.0
20260508175454 57 181 15.0 17.0 0.00 0.00 0.00 43 1011.1
20260508174954 56 181 14.0 15.0 0.00 0.00 0.00 44 1011.1
20260508174453 56 181 15.0 15.0 0.00 0.00 0.00 44 1011.1
20260508173956 56 181 15.0 15.0 0.00 0.00 0.00 42 1011.2
20260508173453 56 182 15.0 15.0 0.00 0.00 0.00 44 1011.4
20260508172953 56 184 15.0 15.0 0.00 0.00 0.00 44 1011.5
20260508172454 55 182 15.0 17.0 0.00 0.00 0.00 45 1011.5
20260508171953 55 181 16.0 17.0 0.00 0.00 0.00 45 1011.7
20260508171454 55 181 17.0 18.0 0.00 0.00 0.00 45 1011.7
20260508170954 55 181 18.0 18.0 0.00 0.00 0.00 45 1011.7
20260508170453 55 182 18.0 19.0 0.00 0.00 0.00 44 1011.7
20260508164453 55 181 16.0 17.0 0.00 0.00 0.00 43 1012.0
20260508163953 56 181 16.0 17.0 0.00 0.00 0.00 43 1012.1
20260508163453 55 182 15.0 17.0 0.00 0.00 0.00 42 1012.1
20260508162954 56 182 15.0 16.0 0.00 0.00 0.00 41 1012.3
20260508162454 56 181 14.0 16.0 0.00 0.00 0.00 40 1012.3
20260508161953 56 181 13.0 15.0 0.00 0.00 0.00 39 1012.2
20260508161454 57 181 13.0 15.0 0.00 0.00 0.00 39 1012.1
20260508160953 57 181 13.0 14.0 0.00 0.00 0.00 40 1012.2
20260508160455 57 176 13.0 13.0 0.00 0.00 0.00 40 1012.4
20260508155455 57 181 12.0 14.0 0.00 0.00 0.00 39 1012.2
20260508154953 57 181 11.0 12.0 0.00 0.00 0.00 38 1012.3
20260508153954 57 176 11.0 11.0 0.00 0.00 0.00 39 1012.2
20260508153455 57 177 11.0 12.0 0.00 0.00 0.00 40 1012.2
20260508152954 57 178 11.0 12.0 0.00 0.00 0.00 39 1012.4
20260508150954 56 181 8.0 9.0 0.00 0.00 0.00 39 1012.4
20260508150454 56 181 8.0 9.0 0.00 0.00 0.00 38 1012.4
20260508145955 56 181 8.0 9.0 0.00 0.00 0.00 38 1012.4
20260508145453 56 181 8.0 8.0 0.00 0.00 0.00 38 1012.4
20260508144953 56 182 6.0 8.0 0.00 0.00 0.00 39 1012.5
20260508144453 56 182 6.0 8.0 0.00 0.00 0.00 38 1012.3
20260508143955 56 181 6.0 8.0 0.00 0.00 0.00 39 1012.4
20260508143454 55 184 6.0 7.0 0.00 0.00 0.00 39 1012.4
20260508142953 55 184 6.0 7.0 0.00 0.00 0.00 40 1012.4
20260508141954 54 181 7.0 8.0 0.00 0.00 0.00 40 1012.6
20260508141453 54 185 7.0 8.0 0.00 0.00 0.00 40 1012.6
20260508140953 54 196 7.0 8.0 0.00 0.00 0.00 41 1012.6
20260508140453 53 199 6.0 7.0 0.00 0.00 0.00 42 1012.5
20260508135955 53 189 5.0 6.0 0.00 0.00 0.00 42 1012.6
20260508134953 54 183 5.0 6.0 0.00 0.00 0.00 43 1012.7
20260508133954 52 200 6.0 6.0 0.00 0.00 0.00 44 1012.6
20260508133453 52 195 6.0 8.0 0.00 0.00 0.00 44 1012.6
20260508132954 52 189 7.0 8.0 0.00 0.00 0.00 44 1012.5
20260508132454 52 191 6.0 8.0 0.00 0.00 0.00 44 1012.4
20260508131953 52 193 4.0 6.0 0.00 0.00 0.00 44 1012.5
20260508131454 51 186 4.0 4.0 0.00 0.00 0.00 43 1012.5
20260508130953 51 196 4.0 4.0 0.00 0.00 0.00 44 1012.5
20260508130454 51 199 3.0 4.0 0.00 0.00 0.00 44 1012.5
20260508125953 51 193 2.0 3.0 0.00 0.00 0.00 44 1012.6
20260508125453 51 261 2.0 3.0 0.00 0.00 0.00 42 1012.7
20260508124955 51 317 3.0 5.0 0.00 0.00 0.00 42 1012.6
20260508124454 50 285 4.0 6.0 0.00 0.00 0.00 42 1012.7
20260508123954 50 255 5.0 8.0 0.00 0.00 0.00 46 1012.5
20260508123453 50 244 5.0 8.0 0.00 0.00 0.00 47 1012.6
20260508122953 50 227 6.0 8.0 0.00 0.00 0.00 48 1012.5
20260508122454 50 230 6.0 8.0 0.00 0.00 0.00 48 1012.5
20260508120953 49 315 2.0 4.0 0.00 0.00 0.00 50 1012.5
20260508120453 48 291 3.0 6.0 0.00 0.00 0.00 51 1012.4
20260508114954 48 287 4.0 5.0 0.00 0.00 0.00 52 1012.2
20260508114454 47 288 4.0 6.0 0.00 0.00 0.00 53 1012.1
20260508113953 47 275 4.0 6.0 0.00 0.00 0.00 52 1012.1
20260508113453 47 265 3.0 4.0 0.00 0.00 0.00 52 1011.9
20260508112953 47 269 3.0 4.0 0.00 0.00 0.00 52 1012.0
20260508111953 47 273 3.0 4.0 0.00 0.00 0.00 52 1011.8
20260508111453 47 254 4.0 5.0 0.00 0.00 0.00 52 1011.9
20260508110454 46 248 5.0 6.0 0.00 0.00 0.00 52 1012.0
20260508105953 46 265 5.0 6.0 0.00 0.00 0.00 53 1012.1
20260508105453 46 267 4.0 5.0 0.00 0.00 0.00 53 1011.9
20260508104454 46 255 4.0 6.0 0.00 0.00 0.00 53 1011.8
20260508103953 46 259 3.0 4.0 0.00 0.00 0.00 52 1012.0
20260508103453 46 282 2.0 4.0 0.00 0.00 0.00 52 1011.8
20260508102953 45 282 2.0 4.0 0.00 0.00 0.00 51 1011.8
20260508102454 45 316 2.0 3.0 0.00 0.00 0.00 51 1011.8
20260508101453 46 273 2.0 3.0 0.00 0.00 0.00 51 1011.8
20260508100953 46 242 2.0 3.0 0.00 0.00 0.00 50 1011.7
20260508100453 46 251 2.0 3.0 0.00 0.00 0.00 50 1011.7
20260508095953 46 291 2.0 3.0 0.00 0.00 0.00 50 1011.8
20260508093454 47 308 3.0 4.0 0.00 0.00 0.00 49 1011.8
20260508092953 47 340 3.0 5.0 0.00 0.00 0.00 49 1011.6
20260508091953 48 352 4.0 5.0 0.00 0.00 0.00 48 1011.7
20260508091454 48 331 3.0 4.0 0.00 0.00 0.00 46 1011.7
20260508090953 49 315 4.0 4.0 0.00 0.00 0.00 46 1011.8
20260508090453 49 316 5.0 7.0 0.00 0.00 0.00 45 1011.8
20260508085453 49 291 6.0 9.0 0.00 0.00 0.00 44 1011.6
20260508084953 49 282 6.0 9.0 0.00 0.00 0.00 44 1011.6
20260508084453 49 291 5.0 9.0 0.00 0.00 0.00 44 1011.6
20260508083952 50 316 4.0 8.0 0.00 0.00 0.00 44 1011.8
20260508083453 50 305 4.0 6.0 0.00 0.00 0.00 44 1011.8
20260508082953 50 289 4.0 6.0 0.00 0.00 0.00 44 1011.8
20260508082453 50 292 4.0 6.0 0.00 0.00 0.00 44 1011.6
20260508081953 50 293 5.0 10.0 0.00 0.00 0.00 44 1011.7
20260508081452 50 312 7.0 11.0 0.00 0.00 0.00 44 1011.8
20260508080953 50 351 9.0 11.0 0.00 0.00 0.00 43 1011.8
20260508080453 50 327 10.0 11.0 0.00 0.00 0.00 43 1011.8
20260508075953 50 287 8.0 11.0 0.00 0.00 0.00 43 1011.9
20260508075453 50 287 6.0 8.0 0.00 0.00 0.00 43 1011.8
20260508074953 50 282 6.0 9.0 0.00 0.00 0.00 43 1011.8
20260508074453 50 277 7.0 10.0 0.00 0.00 0.00 42 1011.9
20260508073953 50 261 9.0 12.0 0.00 0.00 0.00 42 1011.8
20260508073452 51 270 10.0 12.0 0.00 0.00 0.00 42 1011.8
20260508072953 51 289 8.0 11.0 0.00 0.00 0.00 42 1011.8
20260508072453 51 268 8.0 14.0 0.00 0.00 0.00 42 1011.8
20260508071954 51 258 10.0 14.0 0.00 0.00 0.00 43 1011.7
20260508071453 51 270 11.0 14.0 0.00 0.00 0.00 44 1011.7
20260508070953 52 270 12.0 14.0 0.00 0.00 0.00 44 1011.9
20260508070453 52 252 14.0 17.0 0.00 0.00 0.00 42 1011.7
20260508065953 52 231 16.0 21.0 0.00 0.00 0.00 43 1011.5
20260508064953 52 231 22.0 25.0 0.00 0.00 0.00 44 1011.8
20260508064453 52 225 22.0 25.0 0.00 0.00 0.00 43 1011.9
20260508063953 52 221 21.0 23.0 0.00 0.00 0.00 42 1011.8
20260508062954 52 227 19.0 23.0 0.00 0.00 0.00 41 1011.9
20260508062454 52 230 16.0 23.0 0.00 0.00 0.00 42 1012.0
20260508061954 52 259 13.0 18.0 0.00 0.00 0.00 40 1011.9
20260508061453 51 271 11.0 17.0 0.00 0.00 0.00 39 1011.9
20260508055953 51 271 9.0 11.0 0.00 0.00 0.00 37 1012.3
20260508055453 52 272 8.0 11.0 0.00 0.00 0.00 37 1012.3
20260508054953 52 259 11.0 18.0 0.00 0.00 0.00 37 1012.2
20260508054453 52 233 13.0 18.0 0.00 0.00 0.00 38 1012.3
20260508053952 52 227 14.0 17.0 0.00 0.00 0.00 39 1012.1
20260508053453 52 227 15.0 18.0 0.00 0.00 0.00 42 1012.1
20260508052953 52 227 16.0 21.0 0.00 0.00 0.00 40 1012.1
20260508052452 52 227 18.0 21.0 0.00 0.00 0.00 40 1012.2
20260508051952 53 225 17.0 21.0 0.00 0.00 0.00 40 1012.2
20260508051453 52 224 16.0 21.0 0.00 0.00 0.00 40 1012.3
20260508050953 52 224 15.0 17.0 0.00 0.00 0.00 41 1012.3
20260508045953 52 225 18.0 21.0 0.00 0.00 0.00 42 1012.3
20260508045453 52 232 17.0 21.0 0.00 0.00 0.00 41 1012.3
20260508044954 52 243 12.0 20.0 0.00 0.00 0.00 40 1012.3
20260508044453 51 250 6.0 15.0 0.00 0.00 0.00 39 1012.3
20260508043953 51 270 4.0 7.0 0.00 0.00 0.00 34 1012.2
20260508042953 51 259 5.0 9.0 0.00 0.00 0.00 34 1012.3
20260508042452 51 265 5.0 8.0 0.00 0.00 0.00 33 1012.3
20260508041953 51 276 5.0 7.0 0.00 0.00 0.00 32 1012.3
20260508041453 52 289 4.0 7.0 0.00 0.00 0.00 32 1012.4
20260508040952 52 308 5.0 6.0 0.00 0.00 0.00 31 1012.3
20260508040452 52 304 5.0 7.0 0.00 0.00 0.00 30 1012.5
20260508035953 52 281 5.0 7.0 0.00 0.00 0.00 30 1012.6
20260508034953 52 280 4.0 6.0 0.00 0.00 0.00 30 1012.7
20260508034453 52 273 5.0 7.0 0.00 0.00 0.00 30 1012.7
20260508033952 52 283 5.0 8.0 0.00 0.00 0.00 30 1012.7
20260508033452 52 292 6.0 8.0 0.00 0.00 0.00 30 1012.6
20260508031954 53 273 6.0 10.0 0.00 0.00 0.00 30 1012.6
20260508031454 53 288 8.0 11.0 0.00 0.00 0.00 30 1012.7
20260508030452 53 317 6.0 7.0 0.00 0.00 0.00 30 1012.8
20260508025952 53 309 6.0 9.0 0.00 0.00 0.00 30 1012.6
20260508025453 53 276 9.0 17.0 0.00 0.00 0.00 30 1012.7
20260508024953 54 267 9.0 17.0 0.00 0.00 0.00 30 1012.5
20260508024454 54 268 7.0 12.0 0.00 0.00 0.00 30 1012.6
20260508023952 54 252 11.0 17.0 0.00 0.00 0.00 30 1012.7
20260508022953 54 230 12.0 18.0 0.00 0.00 0.00 31 1012.6
20260508021952 54 225 11.0 13.0 0.00 0.00 0.00 35 1012.3
20260508021453 54 225 9.0 12.0 0.00 0.00 0.00 34 1012.3
20260508020952 53 225 5.0 11.0 0.00 0.00 0.00 32 1012.4
20260508020454 52 238 4.0 5.0 0.00 0.00 0.00 30 1012.3
20260508015953 52 244 4.0 5.0 0.00 0.00 0.00 30 1012.2
20260508015454 52 234 4.0 5.0 0.00 0.00 0.00 30 1012.1
20260508014953 52 225 4.0 5.0 0.00 0.00 0.00 30 1012.2
20260508014453 52 229 4.0 5.0 0.00 0.00 0.00 30 1012.2
20260508013953 51 235 3.0 4.0 0.00 0.00 0.00 30 1012.1
20260508013453 51 230 1.0 3.0 0.00 0.00 0.00 30 1012.0
20260508012454 52 0 0.0 0.0 0.00 0.00 0.00 30 1012.0
20260508011953 51 0 0.0 0.0 0.00 0.00 0.00 30 1012.0
20260508011454 51 275 1.0 2.0 0.00 0.00 0.00 30 1011.8
20260508010954 51 272 2.0 2.0 0.00 0.00 0.00 30 1011.8
20260508010454 52 289 2.0 2.0 0.00 0.00 0.00 30 1011.8
20260508005954 52 321 2.0 2.0 0.00 0.00 0.00 30 1011.8
20260508005453 52 311 2.0 3.0 0.00 0.00 0.00 30 1011.8
20260508004954 53 304 2.0 3.0 0.00 0.00 0.00 30 1011.8
20260508004454 53 303 2.0 3.0 0.00 0.00 0.00 30 1011.8
20260508003954 54 301 2.0 4.0 0.00 0.00 0.00 30 1011.8
20260508003454 54 309 3.0 4.0 0.00 0.00 0.00 30 1011.6
20260508002954 54 315 3.0 4.0 0.00 0.00 0.00 30 1011.8
20260508002454 54 312 2.0 4.0 0.00 0.00 0.00 30 1011.7
20260508001954 55 293 3.0 6.0 0.00 0.00 0.00 30 1011.8
20260508001454 56 291 4.0 7.0 0.00 0.00 0.00 30 1011.8
20260508000955 55 340 4.0 7.0 0.00 0.00 0.00 30 1011.7
20260508000457 55 334 4.0 6.0 0.00 0.00 0.00 30 1011.6
20260507235454 56 275 7.0 9.0 0.00 0.00 0.00 30 1011.7
20260507234955 56 277 6.0 8.0 0.00 0.00 0.00 30 1011.6
20260507234455 56 296 6.0 8.0 0.00 0.00 0.00 30 1011.6
20260507233956 57 300 6.0 8.0 0.00 0.00 0.00 30 1011.7
20260507233454 57 287 6.0 9.0 0.00 0.00 0.00 30 1011.6
20260507232955 58 247 8.0 11.0 0.00 0.00 0.00 30 1011.6
20260507232456 58 257 9.0 12.0 0.00 0.00 0.00 30 1011.5
20260507231455 58 284 7.0 11.0 0.00 0.00 0.00 30 1011.6
20260507230455 59 308 6.0 11.0 0.00 0.00 0.00 30 1011.7
20260507225955 59 301 9.0 16.0 0.00 0.00 0.00 30 1011.6
20260507224456 58 318 10.0 15.0 0.00 0.00 0.00 30 1011.9
20260507223455 59 324 9.0 15.0 0.00 0.00 0.00 30 1011.9
20260507222956 59 310 9.0 15.0 0.00 0.00 0.00 30 1011.8
20260507221955 58 278 10.0 15.0 0.00 0.00 0.00 30 1011.7
20260507221457 58 256 10.0 13.0 0.00 0.00 0.00 30 1011.8
20260507220956 59 239 11.0 13.0 0.00 0.00 0.00 30 1011.7
20260507220457 59 238 10.0 14.0 0.00 0.00 0.00 30 1011.7
20260507215956 59 270 12.0 17.0 0.00 0.00 0.00 30 1011.9
20260507215456 59 287 12.0 17.0 0.00 0.00 0.00 30 1011.9
20260507214956 59 290 11.0 19.0 0.00 0.00 0.00 30 1011.7
20260507214457 59 312 11.0 19.0 0.00 0.00 0.00 30 1011.7
20260507213956 59 322 11.0 16.0 0.00 0.00 0.00 30 1011.7
20260507213457 59 280 11.0 18.0 0.00 0.00 0.00 30 1011.7
20260507212458 59 309 13.0 17.0 0.00 0.00 0.00 30 1011.7
20260507211958 59 295 14.0 17.0 0.00 0.00 0.00 30 1011.8
20260507211458 59 291 12.0 17.0 0.00 0.00 0.00 30 1011.7
20260507210957 59 288 8.0 16.0 0.00 0.00 0.00 30 1011.8
20260507210457 59 289 8.0 17.0 0.00 0.00 0.00 30 1011.6
20260507205957 59 277 12.0 20.0 0.00 0.00 0.00 30 1011.8
20260507204957 58 326 12.0 18.0 0.00 0.00 0.00 30 1011.8
20260507202957 57 310 11.0 19.0 0.00 0.00 0.00 30 1011.8
20260507202458 57 285 11.0 16.0 0.00 0.00 0.00 30 1011.7
20260507201958 58 274 13.0 20.0 0.00 0.00 0.00 30 1011.6
20260507201457 58 273 14.0 20.0 0.00 0.00 0.00 30 1011.6
20260507200957 57 291 9.0 18.0 0.00 0.00 0.00 30 1011.6
20260507200459 56 303 8.0 12.0 0.00 0.00 0.00 30 1011.7
20260507195958 56 289 11.0 15.0 0.00 0.00 0.00 30 1011.7
20260507195458 56 294 9.0 15.0 0.00 0.00 0.00 30 1011.7
20260507194957 56 306 8.0 13.0 0.00 0.00 0.00 30 1011.6
20260507193958 57 288 11.0 17.0 0.00 0.00 0.00 30 1011.7
20260507193500 57 265 11.0 17.0 0.00 0.00 0.00 30 1011.8
20260507192958 57 268 11.0 16.0 0.00 0.00 0.00 30 1011.8
20260507192458 57 281 12.0 16.0 0.00 0.00 0.00 30 1011.8
20260507191958 56 291 11.0 16.0 0.00 0.00 0.00 30 1012.0
20260507190959 55 348 10.0 11.0 0.00 0.00 0.00 30 1011.8
20260507185958 54 261 15.0 21.0 0.00 0.00 0.00 30 1012.0